Torna al catalogo

USA 329

AttivoMilitareVLEO
NORAD 52890·PAYLOAD·🇺🇸 United States

Lanciato Jun 19, 2022 da Cape Canaveral Space Force Station

Loading…

Prossimi Passaggi (prossime 24 ore)

TLE

ObsoletoSource: Mike McCants

Epoca: Nov 11, 2024, 17:15 UTC

1 52890U 22064C   24316.71940197 0.00000160  00000-0  88312-5 0    09
2 52890  53.0125 209.4844 0005879  20.4589 339.5410 15.13426190    07

Traccia USA 329 in tempo reale con AllMySat

Download on the App Store